When you browse on this site, cookies collect data to enhance your experience and personalize the content and advertising you see.
Visit our Privacy Policy to learn more. By continuing to use the site, you agree to this use of cookies and data.
  • In France
  • List of Countries
  • For 7 days
  • Water Temperature
  • Satellite Maps
  • Weather Map
  • Weather Widgets
  • user-avatar
    Login

    Hourly Weather Lankaran

    Today, 22 April, Monday

    Time Temperature Precipitation Wind Pressure Humidity
    00:00 -2°C° 0.1 mm 2 mps 631 mmHg 91%
    01:00 -2°C° 0.1 mm 2 mps 631 mmHg 91%
    02:00 -2°C° 0.1 mm 2 mps 631 mmHg 92%
    03:00 -3°C° 0.1 mm 2 mps 631 mmHg 93%
    04:00 -2°C° 0.1 mm 2 mps 631 mmHg 92%
    05:00 -2°C° 0.1 mm 3 mps 631 mmHg 92%
    06:00 -2°C° 0.1 mm 3 mps 631 mmHg 92%
    07:00 -2°C° 0.3 mm 3 mps 631 mmHg 91%
    08:00 -2°C° 0.3 mm 3 mps 631 mmHg 91%
    09:00 -2°C° 0.3 mm 3 mps 631 mmHg 90%
    10:00 -2°C° 1 mm 4 mps 631 mmHg 89%
    11:00 -2°C° 1 mm 4 mps 630 mmHg 89%
    12:00 -2°C° 1 mm 4 mps 630 mmHg 88%
    13:00 -2°C° 0.5 mm 4 mps 630 mmHg 89%
    14:00 -2°C° 0.5 mm 4 mps 630 mmHg 89%
    15:00 -2°C° 0.5 mm 4 mps 630 mmHg 89%
    16:00 -2°C° 1.3 mm 3 mps 630 mmHg 90%
    17:00 -2°C° 1.3 mm 3 mps 631 mmHg 91%
    18:00 -2°C° 1.3 mm 3 mps 631 mmHg 92%
    19:00 -2°C° 1.3 mm 3 mps 631 mmHg 93%
    20:00 -2°C° 1.3 mm 3 mps 632 mmHg 93%
    21:00 -2°C° 1.3 mm 2 mps 632 mmHg 93%
    22:00 -3°C° 0.5 mm 2 mps 632 mmHg 93%
    23:00 -1°C° 0.5 mm 1 mps 632 mmHg 93%

    Tomorrow, 23 April, Tuesday

    Time Temperature Precipitation Wind Pressure Humidity
    00:00 -1°C° 0.5 mm 1 mps 632 mmHg 93%
    01:00 -1°C° 0.5 mm 1 mps 632 mmHg 92%
    02:00 -2°C° 0.5 mm 1 mps 632 mmHg 92%
    03:00 -2°C° 0.5 mm 1 mps 633 mmHg 92%
    04:00 -2°C° 0.5 mm 1 mps 633 mmHg 91%
    05:00 -2°C° 0.5 mm 1 mps 633 mmHg 90%
    06:00 -2°C° 0.5 mm 1 mps 634 mmHg 89%
    07:00 -1°C° 0.6 mm 1 mps 634 mmHg 86%
    08:00 0°C° 0.6 mm 1 mps 635 mmHg 84%
    09:00 -2°C° 0.6 mm 2 mps 636 mmHg 82%
    10:00 -1°C° 0.4 mm 2 mps 636 mmHg 81%
    11:00 -1°C° 0.4 mm 2 mps 637 mmHg 80%
    12:00 +1°C° 0.4 mm 2 mps 637 mmHg 79%
    13:00 +1°C° 0.1 mm 2 mps 637 mmHg 78%
    14:00 +1°C° 0.1 mm 2 mps 637 mmHg 77%
    15:00 +2°C° 0.1 mm 2 mps 637 mmHg 76%
    16:00 +1°C° 0 mm 2 mps 637 mmHg 76%
    17:00 -1°C° 0 mm 2 mps 637 mmHg 76%
    18:00 0°C° 0 mm 1 mps 636 mmHg 75%
    19:00 0°C° 0 mm 1 mps 636 mmHg 75%
    20:00 -3°C° 0 mm 2 mps 637 mmHg 75%
    21:00 -4°C° 0 mm 2 mps 637 mmHg 75%
    22:00 -4°C° 0 mm 2 mps 637 mmHg 73%
    23:00 -4°C° 0 mm 2 mps 636 mmHg 71%

    Day after tomorrow, 24 April, Wednesday

    Time Temperature Precipitation Wind Pressure Humidity
    00:00 -4°C° 0 mm 2 mps 636 mmHg 69%
    01:00 -5°C° 0 mm 2 mps 636 mmHg 67%
    02:00 -5°C° 0 mm 2 mps 636 mmHg 66%
    03:00 -5°C° 0 mm 2 mps 636 mmHg 64%
    04:00 -4°C° 0 mm 2 mps 636 mmHg 63%
    05:00 -4°C° 0 mm 2 mps 637 mmHg 62%
    06:00 -3°C° 0 mm 2 mps 637 mmHg 60%
    07:00 0°C° 0 mm 1 mps 638 mmHg 61%
    08:00 +2°C° 0 mm 1 mps 638 mmHg 61%
    09:00 +4°C° 0 mm 1 mps 639 mmHg 61%
    10:00 +4°C° 0 mm 1 mps 639 mmHg 60%
    11:00 +5°C° 0 mm 1 mps 639 mmHg 60%
    12:00 +4°C° 0 mm 2 mps 639 mmHg 59%
    13:00 +5°C° 0 mm 2 mps 638 mmHg 60%
    14:00 +5°C° 0 mm 2 mps 638 mmHg 60%
    15:00 +5°C° 0 mm 2 mps 638 mmHg 61%
    16:00 +4°C° 0 mm 2 mps 637 mmHg 63%
    17:00 +4°C° 0 mm 1 mps 637 mmHg 65%
    18:00 +3°C° 0 mm 1 mps 636 mmHg 68%
    19:00 +2°C° 0 mm 1 mps 636 mmHg 68%
    20:00 +2°C° 0 mm 1 mps 636 mmHg 68%
    21:00 +1°C° 0 mm 1 mps 636 mmHg 68%
    22:00 +1°C° 0 mm 1 mps 636 mmHg 67%
    23:00 +1°C° 0 mm 1 mps 636 mmHg 65%

    25 April, Thursday

    Time Temperature Precipitation Wind Pressure Humidity
    00:00 +2°C° 0 mm 1 mps 636 mmHg 63%
    01:00 +2°C° 0.1 mm 1 mps 636 mmHg 63%
    02:00 +2°C° 0.1 mm 1 mps 636 mmHg 63%
    03:00 +2°C° 0.1 mm 1 mps 636 mmHg 62%
    04:00 +2°C° 0.1 mm 1 mps 636 mmHg 63%
    05:00 +2°C° 0.1 mm 1 mps 637 mmHg 64%
    06:00 +3°C° 0.1 mm 1 mps 637 mmHg 65%
    07:00 +4°C° 0.1 mm 1 mps 637 mmHg 65%
    08:00 +5°C° 0.1 mm 1 mps 638 mmHg 64%
    09:00 +6°C° 0.1 mm 1 mps 639 mmHg 63%
    10:00 +6°C° 0.1 mm 1 mps 639 mmHg 64%
    11:00 +6°C° 0.1 mm 2 mps 639 mmHg 64%
    12:00 +6°C° 0.1 mm 2 mps 639 mmHg 65%
    13:00 +6°C° 0.3 mm 2 mps 638 mmHg 66%
    14:00 +6°C° 0.3 mm 2 mps 638 mmHg 68%
    15:00 +5°C° 0.3 mm 3 mps 638 mmHg 69%
    16:00 +5°C° 0.3 mm 2 mps 638 mmHg 73%
    17:00 +4°C° 0.3 mm 2 mps 638 mmHg 76%
    18:00 +4°C° 0.3 mm 2 mps 637 mmHg 80%
    19:00 +3°C° 0 mm 2 mps 637 mmHg 81%
    20:00 +3°C° 0 mm 1 mps 638 mmHg 82%
    21:00 +2°C° 0 mm 1 mps 638 mmHg 83%
    22:00 +2°C° 0 mm 1 mps 637 mmHg 81%
    23:00 +2°C° 0 mm 1 mps 637 mmHg 79%

    26 April, Friday

    Time Temperature Precipitation Wind Pressure Humidity
    00:00 +2°C° 0 mm 1 mps 637 mmHg 76%
    01:00 +1°C° 0 mm 2 mps 637 mmHg 74%
    02:00 +1°C° 0 mm 2 mps 636 mmHg 71%
    03:00 +1°C° 0 mm 2 mps 636 mmHg 68%
    04:00 +1°C° 0 mm 2 mps 637 mmHg 67%
    05:00 +2°C° 0 mm 2 mps 637 mmHg 65%
    06:00 +2°C° 0 mm 2 mps 637 mmHg 63%
    07:00 +4°C° 0 mm 2 mps 638 mmHg 62%
    08:00 +5°C° 0 mm 2 mps 638 mmHg 61%
    09:00 +7°C° 0 mm 2 mps 639 mmHg 60%
    10:00 +7°C° 0 mm 3 mps 639 mmHg 58%
    11:00 +8°C° 0 mm 3 mps 639 mmHg 56%
    12:00 +9°C° 0 mm 3 mps 639 mmHg 54%
    13:00 +9°C° 0 mm 3 mps 638 mmHg 54%
    14:00 +9°C° 0 mm 3 mps 638 mmHg 54%
    15:00 +8°C° 0 mm 3 mps 638 mmHg 54%
    16:00 +7°C° 0 mm 3 mps 637 mmHg 60%
    17:00 +5°C° 0 mm 3 mps 637 mmHg 65%
    18:00 +5°C° 0 mm 2 mps 637 mmHg 70%
    19:00 +4°C° 0 mm 2 mps 636 mmHg 72%
    20:00 +2°C° 0 mm 2 mps 636 mmHg 74%
    21:00 +2°C° 0 mm 1 mps 636 mmHg 76%
    22:00 +2°C° 0 mm 1 mps 636 mmHg 74%
    23:00 +2°C° 0 mm 1 mps 635 mmHg 73%

    27 April, Saturday

    Time Temperature Precipitation Wind Pressure Humidity
    00:00 +2°C° 0 mm 1 mps 635 mmHg 71%
    01:00 +2°C° 0 mm 1 mps 635 mmHg 68%
    02:00 +2°C° 0 mm 1 mps 635 mmHg 66%
    03:00 +2°C° 0 mm 1 mps 634 mmHg 63%
    04:00 +2°C° 0 mm 1 mps 635 mmHg 61%
    05:00 +3°C° 0 mm 1 mps 635 mmHg 59%
    06:00 +4°C° 0 mm 1 mps 635 mmHg 58%
    07:00 +6°C° 0 mm 1 mps 636 mmHg 54%
    08:00 +7°C° 0 mm 1 mps 637 mmHg 50%
    09:00 +9°C° 0 mm 1 mps 637 mmHg 46%
    10:00 +10°C° 0 mm 1 mps 637 mmHg 46%
    11:00 +9°C° 0 mm 2 mps 637 mmHg 47%
    12:00 +10°C° 0 mm 2 mps 637 mmHg 47%
    13:00 +10°C° 0 mm 2 mps 637 mmHg 48%
    14:00 +10°C° 0 mm 2 mps 636 mmHg 48%
    15:00 +10°C° 0 mm 2 mps 636 mmHg 49%
    16:00 +9°C° 0 mm 2 mps 636 mmHg 55%
    17:00 +9°C° 0 mm 1 mps 635 mmHg 61%
    18:00 +8°C° 0 mm 1 mps 635 mmHg 66%
    19:00 +7°C° 0 mm 1 mps 635 mmHg 67%
    20:00 +6°C° 0 mm 1 mps 635 mmHg 68%
    21:00 +5°C° 0 mm 1 mps 634 mmHg 68%
    22:00 +5°C° 0 mm 1 mps 634 mmHg 66%
    23:00 +5°C° 0 mm 1 mps 634 mmHg 63%
    Show more